Location: ????????
(55.5667°N, 37.5833°E)
Time: 06:50:41
(UTC+00:00)

Cosmos 1892 Rocket - Pass Details

Date: 14 April 2026
Orbit: 599 x 626 km, 82.5° (Epoch: 12 May)

Event Time Altitude Azimuth Distance (km) Brightness Sun altitude
Rises 21:38:01 0° 346° (NNW) 2,923 8.2 -24.7°
Reaches altitude 10° 21:40:17 10° 343° (NNW) 2,008 7.1 -24.7°
Enters shadow 21:44:22 61° 287° (WNW) 712 3.8 -24.7°
